User: anonymous   Login
Location: Dappach
(48.9767°N, 9.6998°E)
Time: 17:06:50
(UTC+00:00)
Language:

Cosmos 1400 Rocket - Orbit

View from above orbital plane
View from above orbital plane
View from above satellite
View from above satellite

Ground track
Ground track

The orbit data is extracted from the following two-line orbital elements,

1 13403U 82079B   24196.47100640  .00006063  00000-0  32135-3 0  9993
2 13403  81.1501 180.4710 0030506  37.9607 322.3763 15.14824109286261
Epoch (UTC): 14 July 2024 11:18:14
Eccentricity: 0.0030506
inclination: 81.1501°
perigee height: 500 km
apogee height: 542 km
right ascension of ascending node: 180.4710°
argument of perigee: 37.9607°
revolutions per day: 15.14824109
mean anomaly at epoch: 322.3763°
orbit number at epoch: 28626

The dashed part of the orbit path shows where the satellite is in the earth's shadow,  

DLR